Flag Weather past 2 weeks in East London, South Africa

Now
66 °F

Rain. Overcast.


Feels Like: 66 °F
Forecast: 62 / 68 °F
Wind: 6 mph from East

Location: East London

Current Time: Nov 24, 2014 at 11:47:41 PM

Latest Report: Nov 24, 2014 at 9:00 PM


Visibility: 5 mi

Pressure: 30.15 "Hg

Humidity: 94%

Dew point: 64 °F

Location of East LondonLocation

Historic Weather in East London — Graph

°F

East London temperature yesterday

Maximum temperature yesterday: 79 °F (at 11:00 AM)
Minimum temperature yesterday: 68 °F (at 5:00 AM)
Average temperature yesterday: 72 °F

Past Weeks' High & Low Weather Summary

 TemperatureHumidityPressure
High79 °F (Nov 23, 11:00 AM)100% (Nov 11, 5:00 AM)30.36 "Hg (Nov 11, 5:00 AM)
Low52 °F (Nov 18, 5:00 AM)31% (Nov 15, 1:00 PM)29.47 "Hg (Nov 12, 5:00 PM)
Average67 °F74%30.02 "Hg
* Reported Nov 10 5:00 AM — Nov 24 9:00 PM, East London, Weather by CustomWeather, © 2014

Note: Actual official high and low records may vary slightly from our data, if they occured in-between our weather recording intervals... More about our weather records

Advertising

East London weather history for previous 24 hours

 ConditionsComfort  
Time TempWeatherWind HumidityBarometerVisibility
9:00 PM
Nov 24
66 °FRain. Overcast.6 mph94%30.15 "Hg5 mi
8:00 PM66 °FPartly cloudy.5 mph88%30.15 "HgN/A
7:00 PM66 °FLight rain. Mostly cloudy.7 mph94%30.12 "Hg6 mi
6:00 PM68 °FPartly cloudy.7 mph88%30.09 "HgN/A
5:00 PM68 °FMostly cloudy.7 mph88%30.09 "Hg6 mi
3:58 PM70 °FRain. Mostly cloudy.8 mph83%30.09 "Hg6 mi
3:00 PM72 °FBroken clouds.10 mph83%30.09 "HgN/A
2:00 PM72 °FScattered clouds.8 mph83%30.09 "HgN/A
1:00 PM72 °FScattered clouds.10 mph83%30.09 "HgN/A
12:00 PM68 °FLight rain. Scattered clouds.6 mph88%30.09 "HgN/A
11:01 AM66 °FLight rain. Broken clouds.7 mph100%30.09 "HgN/A
10:00 AM70 °FBroken clouds.9 mph88%30.09 "HgN/A
9:00 AM68 °FBroken clouds.7 mph88%30.09 "HgN/A
8:00 AM66 °FPartly sunny.5 mph94%30.09 "HgN/A
7:01 AM66 °FBroken clouds.6 mph94%30.07 "HgN/A
6:00 AM64 °FPartly sunny.6 mph94%30.07 "HgN/A
5:00 AM64 °FLight rain. Broken clouds.6 mph94%30.04 "HgN/A
Weather by CustomWeather, © 2014

See weather overviewHow to use our weather pages